Weather History for KUOX - May, 2014

Change the Weather History Date:

Friday, May 2, 2014

  Actual Average (KTUP) Record (KTUP)
Temperature  
Mean Temperature 54 °F 67 °F  
Max Temperature 68 °F 78 °F 91 °F (1959)
Min Temperature 41 °F 55 °F 38 °F (1981)
Degree Days  
Heating Degree Days 10 2  
Month to date heating degree days 4  
Since 1 July heating degree days 2936  
Cooling Degree Days 0 4  
Month to date cooling degree days 7  
Year to date cooling degree days 83  
Growing Degree Days 4 (Base 50)    
Moisture  
Dew Point 40 °F    
Average Humidity 63    
Maximum Humidity 100    
Minimum Humidity 30    
Precipitation  
Precipitation 0.00 in 0.20 in 3.15 in (2010)
Month to date precipitation 0.39  
Year to date precipitation 19.43  
Snow  
Snow 0.00 in 0.00 in - ()
Month to date snowfall 0.0  
Since 1 July snowfall 2.1  
Snow Depth -    
Sea Level Pressure  
Sea Level Pressure 30.01 in    
Wind  
Wind Speed 2 mph (WNW)    
Max Wind Speed 10 mph    
Max Gust Speed -    
Visibility 10 miles    
Events      
T = Trace of Precipitation, MM = Missing Value Source: NWS Daily Summary

Daily Weather History Graph

Daily Weather History Graph

Search for Another Location

Airport or City:

Trip Planner

Search our weather history database for the weather conditions in past years. The results will help you decide how hot, cold, wet, or windy it might be!

Date:

Astronomy

May. 02, 2014 Rise Set
Actual Time 6:07 AM CDT 7:43 PM CDT
Civil Twilight 5:40 AM CDT 8:10 PM CDT
Nautical Twilight 5:08 AM CDT 8:42 PM CDT
Astronomical Twilight 4:34 AM CDT 9:16 PM CDT
Moon 8:47 AM CDT (5/2) 11:03 PM CDT (5/2)
Length of Visible Light 14h 29m
Length of Day
13h 36m
Waxing Crescent, 12% of the Moon is Illuminated
May 2
Waxing Crescent
May 6
First Quarter
May 14
Full
May 21
Last Quarter
May 28
New

Hourly Weather History & Observations

Time (CDT) Temp. Dew Point Humidity Pressure Visibility Wind Dir Wind Speed Gust Speed Precip Events Conditions
12:15 AM 44.6 °F 41.0 °F 87% 30.02 in 10.0 mi Calm Calm - N/A   Clear
12:35 AM 44.6 °F 41.0 °F 87% 30.03 in 10.0 mi Calm Calm - N/A   Clear
12:55 AM 44.6 °F 41.0 °F 87% 30.02 in 10.0 mi Calm Calm - N/A   Clear
1:15 AM 44.6 °F 41.0 °F 87% 30.02 in 10.0 mi Calm Calm - N/A   Clear
1:35 AM 44.6 °F 41.0 °F 87% 30.02 in 10.0 mi Calm Calm - N/A   Clear
1:55 AM 44.6 °F 41.0 °F 87% 30.01 in 10.0 mi Calm Calm - N/A   Clear
2:15 AM 44.6 °F 41.0 °F 87% 30.01 in 10.0 mi Calm Calm - N/A   Clear
2:35 AM 46.4 °F 42.8 °F 87% 30.01 in 10.0 mi Calm Calm - N/A   Clear
2:55 AM 44.6 °F 41.0 °F 87% 30.02 in 10.0 mi Calm Calm - N/A   Clear
3:15 AM 44.6 °F 42.8 °F 93% 30.02 in 10.0 mi Calm Calm - N/A   Clear
3:35 AM 46.4 °F 42.8 °F 87% 30.02 in 10.0 mi Calm Calm - N/A   Clear
3:55 AM 46.4 °F 42.8 °F 87% 30.02 in 10.0 mi Calm Calm - N/A   Clear
4:15 AM 44.6 °F 42.8 °F 93% 30.02 in 10.0 mi Calm Calm - N/A   Clear
4:35 AM 44.6 °F 42.8 °F 93% 30.02 in 10.0 mi Calm Calm - N/A   Clear
4:55 AM 44.6 °F 41.0 °F 87% 30.02 in 10.0 mi Calm Calm - N/A   Clear
5:15 AM 44.6 °F 41.0 °F 87% 30.02 in 10.0 mi Calm Calm - N/A   Clear
5:35 AM 42.8 °F 41.0 °F 93% 30.02 in 10.0 mi Calm Calm - N/A   Clear
5:55 AM 41.0 °F 41.0 °F 100% 30.02 in 10.0 mi Calm Calm - N/A   Clear
6:15 AM 41.0 °F 41.0 °F 100% 30.02 in 9.0 mi Calm Calm - N/A   Clear
6:35 AM 41.0 °F 41.0 °F 100% 30.01 in 9.0 mi Calm Calm - N/A   Clear
6:55 AM 41.0 °F 41.0 °F 100% 30.01 in 10.0 mi Calm Calm - N/A   Clear
7:15 AM 44.6 °F 42.8 °F 93% 30.03 in 10.0 mi Calm Calm - N/A   Clear
7:35 AM 46.4 °F 44.6 °F 93% 30.04 in 10.0 mi Calm Calm - N/A   Clear
7:55 AM 48.2 °F 42.8 °F 82% 30.05 in 10.0 mi Calm Calm - N/A   Clear
8:15 AM 53.6 °F 44.6 °F 72% 30.05 in 10.0 mi Calm Calm - N/A   Clear
8:35 AM 55.4 °F 44.6 °F 67% 30.05 in 10.0 mi Calm Calm - N/A   Clear
8:55 AM 57.2 °F 41.0 °F 55% 30.05 in 10.0 mi Calm Calm - N/A   Clear
9:15 AM 59.0 °F 41.0 °F 51% 30.06 in 10.0 mi WNW 3.5 mph - N/A   Clear
9:35 AM 59.0 °F 39.2 °F 48% 30.06 in 10.0 mi North 4.6 mph - N/A   Clear
9:55 AM 60.8 °F 39.2 °F 45% 30.05 in 10.0 mi WNW 3.5 mph - N/A   Clear
10:15 AM 62.6 °F 39.2 °F 42% 30.06 in 10.0 mi WSW 3.5 mph - N/A   Clear
10:35 AM 62.6 °F 37.4 °F 39% 30.06 in 10.0 mi WNW 4.6 mph - N/A   Clear
10:55 AM 62.6 °F 37.4 °F 39% 30.06 in 10.0 mi WNW 6.9 mph - N/A   Clear
11:15 AM 62.6 °F 37.4 °F 39% 30.07 in 10.0 mi NNW 8.1 mph - N/A   Clear
11:35 AM 64.4 °F 37.4 °F 37% 30.06 in 10.0 mi WNW 9.2 mph - N/A   Clear
11:55 AM 64.4 °F 37.4 °F 37% 30.05 in 10.0 mi NNW 10.4 mph - N/A   Clear
12:15 PM 64.4 °F 37.4 °F 37% 30.04 in 10.0 mi NNW 5.8 mph - N/A   Scattered Clouds
12:35 PM 66.2 °F 35.6 °F 32% 30.04 in 10.0 mi West 8.1 mph - N/A   Scattered Clouds
12:55 PM 66.2 °F 35.6 °F 32% 30.03 in 10.0 mi NNW 6.9 mph - N/A   Partly Cloudy
1:15 PM 64.4 °F 37.4 °F 37% 30.02 in 10.0 mi NW 8.1 mph - N/A   Scattered Clouds
1:35 PM 64.4 °F 37.4 °F 37% 30.01 in 10.0 mi NNW 6.9 mph - N/A   Scattered Clouds
1:55 PM 68.0 °F 35.6 °F 30% 30.01 in 10.0 mi NW 6.9 mph - N/A   Scattered Clouds
2:15 PM 66.2 °F 35.6 °F 32% 30.00 in 10.0 mi NW 6.9 mph - N/A   Partly Cloudy
2:35 PM 68.0 °F 35.6 °F 30% 30.00 in 9.0 mi NNW 8.1 mph - N/A   Clear
2:55 PM 68.0 °F 35.6 °F 30% 29.99 in 10.0 mi NW 10.4 mph - N/A   Clear
3:15 PM 68.0 °F 35.6 °F 30% 29.98 in 10.0 mi NNW 8.1 mph - N/A   Partly Cloudy
3:35 PM 68.0 °F 35.6 °F 30% 29.98 in 10.0 mi WNW 5.8 mph - N/A   Partly Cloudy
3:55 PM 68.0 °F 35.6 °F 30% 29.98 in 9.0 mi West 4.6 mph - N/A   Partly Cloudy
4:15 PM 66.2 °F 35.6 °F 32% 29.97 in 10.0 mi NNW 8.1 mph - N/A   Scattered Clouds
4:35 PM 68.0 °F 35.6 °F 30% 29.97 in 10.0 mi West 5.8 mph - N/A   Scattered Clouds
5:15 PM 66.2 °F 35.6 °F 32% 29.97 in 10.0 mi WNW 6.9 mph - N/A   Partly Cloudy
5:35 PM 68.0 °F 35.6 °F 30% 29.97 in 10.0 mi West 6.9 mph - N/A   Clear
5:55 PM 66.2 °F 35.6 °F 32% 29.97 in 10.0 mi WSW 5.8 mph - N/A   Partly Cloudy
6:15 PM 66.2 °F 37.4 °F 35% 29.96 in 10.0 mi West 4.6 mph - N/A   Clear
6:35 PM 66.2 °F 37.4 °F 35% 29.96 in 10.0 mi West 3.5 mph - N/A   Clear
6:55 PM 66.2 °F 37.4 °F 35% 29.96 in 10.0 mi West 4.6 mph - N/A   Clear
7:15 PM 64.4 °F 37.4 °F 37% 29.96 in 10.0 mi Calm Calm - N/A   Clear
7:35 PM 60.8 °F 44.6 °F 55% 29.96 in 10.0 mi Calm Calm - N/A   Clear
7:55 PM 57.2 °F 42.8 °F 59% 29.96 in 10.0 mi Calm Calm - N/A   Clear
8:15 PM 55.4 °F 42.8 °F 63% 29.96 in 10.0 mi Calm Calm - N/A   Clear
8:35 PM 53.6 °F 42.8 °F 67% 29.97 in 10.0 mi Calm Calm - N/A   Clear
8:55 PM 53.6 °F 44.6 °F 72% 29.97 in 10.0 mi Calm Calm - N/A   Clear
9:15 PM 50.0 °F 44.6 °F 82% 29.98 in 10.0 mi Calm Calm - N/A   Clear
9:35 PM 50.0 °F 44.6 °F 82% 29.98 in 10.0 mi Calm Calm - N/A   Clear
9:55 PM 50.0 °F 44.6 °F 82% 29.99 in 10.0 mi Calm Calm - N/A   Clear
10:15 PM 48.2 °F 44.6 °F 87% 29.99 in 10.0 mi Calm Calm - N/A   Clear
10:35 PM 48.2 °F 44.6 °F 87% 29.99 in 10.0 mi Calm Calm - N/A   Clear
10:55 PM 48.2 °F 44.6 °F 87% 29.99 in 10.0 mi Calm Calm - N/A   Clear
11:15 PM 48.2 °F 44.6 °F 87% 29.99 in 10.0 mi Calm Calm - N/A   Clear
11:35 PM 48.2 °F 44.6 °F 87% 29.99 in 10.0 mi Calm Calm - N/A   Clear
11:55 PM 48.2 °F 42.8 °F 82% 29.99 in 10.0 mi Calm Calm - N/A   Clear